TITAN 3C TRANSTAGE DEB, 26782

Orbit data source: Space-Track

TITAN 3C TRANSTAGE DEB, 26782 is space debris originally from a launch on Tue, 21 Dec 1965 UTC launched from the Air Force Eastern Test Range (AFETR). Debris objects in space refer to the collection of defunct objects orbiting the Earth. Examples of debris include non-operational satellites, rocket bodies, and fragments generated from explosions, collisions, or faulty payload assembly.

Loading next visibility...
Identifier
26782, 1965-108BA
Orbit
Active
Country
Flag of USUS
Related business
Manufacturer
Unknown
Mission
Spacecraft
Bus & Motor
Unknown
Mass
Unknown
Launch date (UTC)
1965-12-21 (60 years ago)
Launch vehicle
Unknown
Launch site
Air Force Eastern Test Range (AFETR)
Object type
Payload
Rocket body
Debris
Shape & HBR
Unknown shape, 0.3 m
Radar Cross Section
Medium (>0.1 m² and <1 m²)

Expand to show TLE details & history
Last TLE update: 13 hours ago

TLE from 13 hours ago
0 TITAN 3C TRANSTAGE DEB
1 26782U 65108BA  25295.19619890  .00053994 -65729-6  23863-2 0  9991
2 26782  26.4219 260.4453 2907359 145.6290 237.1959  9.54500430390072
Epoch: 2025-10-22T04:42Z
TLE epoch observation values (Epoch: 2025-10-22T04:42:31.584Z)
Latitude
0.00001°
Longitude
158.94045°
Altitude
4,925.808 km
Speed
5.299 km/s
True Right ascension
17h 21m 46s
True Declination
0° 00' 00"
Sunlit
Object was in daylight at epoch
Visualization orbit readout
Latitude
Unknown
Longitude
Unknown
Altitude
Unknown
Speed
Unknown
Apparent Right ascension
Unknown
Apparent Declination
Unknown
Sunlit
N/A
Visualization observer readout
Local Sidereal Time
12:59:30
Azimuth
Unknown
Elevation
Unknown
Doppler factor
Unknown
Orbital elements
Apogee altitude
5,743.547 km
Perigee altitude
282.773 km
Semi-major axis
9,391.297 km
Eccentricity
0.29074
Inclination
26.4219°
RAAN
260.4453°
Arg. of periapsis
145.629°
True anomaly
214.41302°
Mean anomaly
237.1959°
Eccentric anomaly
225.34603°
Mean motion
2.38482 °/min
Orbital period
150.96 mins
BSTAR
0.0023863
Loading maneuver chart data...
Computing Atmospheric mass density...

Documentation

Showing up to 5 results
|